Wind_Speed
11 7 9 10 10 12 13 13 14 13 11 5 5 3 7 3 8 12 14 12 12 7 5 7 8 7 6 8 8 9 8 4 2 7 11 14 22 21 22 23 23 23 22 21 22 22 20 21 22 21 21 19 20 21 21 20 19 19 18 17 18 16 15 15 14 14 13 12 12 10 9 10 10 7 8 9 10 8 7 9 9 9 9 9 9 8
11 8 9 12 14 14 13 14 16 16 14 7 4 3 7 4 6 12 15 13 12 7 4 6 9 7 5 6 6 8 8 3 3 4 10 9 16 21 20 22 24 22 22 22 22 22 21 21 22 22 21 20 21 22 22 21 19 19 18 17 18 17 15 14 15 14 13 12 11 10 9 8 8 8 9 10 11 10 7 9 9 9 9 9 8 8
9 9 11 14 14 14 14 14 17 16 12 7 4 4 5 4 5 11 15 14 9 5 6 7 8 6 4 4 5 7 8 6 9 13 9 8 11 17 19 20 23 22 23 24 23 23 22 22 22 22 22 21 22 22 22 21 20 20 19 19 19 17 15 15 15 15 14 13 11 10 9 9 7 8 9 9 10 10 7 9 9 8 9 8 8 8
8 9 13 14 12 15 16 15 15 12 10 9 8 7 5 6 5 7 16 17 10 6 11 11 6 4 3 2 3 6 8 9 14 17 11 7 10 11 16 19 22 23 24 25 24 24 23 23 23 23 23 22 22 22 22 22 21 21 20 20 20 18 16 16 15 15 14 14 13 11 10 10 9 9 10 10 9 9 8 9 8 8 8 8 9 8
9 9 13 16 14 16 15 13 13 10 8 9 9 7 5 10 10 6 15 17 11 9 14 13 5 2 4 5 4 8 10 8 11 12 11 12 12 6 10 14 19 22 23 25 25 24 24 24 23 23 23 23 23 22 23 23 22 21 20 20 20 19 17 16 16 16 15 15 16 14 10 11 11 10 10 11 10 9 9 9 9 9 9 8 9 8
10 11 14 14 14 15 14 13 12 9 7 8 7 6 6 10 11 7 16 15 8 7 12 12 6 2 6 8 7 7 10 10 10 12 11 13 13 7 7 10 16 20 22 24 25 24 24 24 24 23 24 23 23 23 23 23 22 22 21 20 20 19 18 17 16 17 17 17 18 18 14 12 13 11 9 10 10 8 8 9 9 9 9 9 9 8
8 12 13 14 15 15 14 11 9 8 7 6 7 8 7 8 11 5 10 10 6 7 13 12 5 5 6 8 10 10 12 12 11 11 13 14 14 11 10 10 12 17 22 23 23 24 24 25 24 24 24 24 23 23 23 23 22 22 22 21 21 20 19 18 17 17 17 17 17 18 16 13 13 13 11 10 10 7 8 10 10 9 10 9 8 8
10 14 12 14 15 12 9 7 7 9 8 5 9 13 9 8 12 10 5 7 6 8 14 14 7 7 5 5 7 9 10 10 11 9 10 17 19 15 12 12 14 16 18 21 23 24 23 25 24 24 24 23 23 23 23 23 22 23 23 21 21 20 19 19 18 18 17 17 17 17 16 14 13 12 11 12 12 9 9 11 10 8 10 10 9 8
12 14 10 9 8 7 8 9 9 11 9 9 13 13 11 9 12 11 8 7 6 6 9 12 11 7 3 5 6 6 6 5 9 10 10 17 22 19 14 14 17 20 17 16 20 23 23 24 24 23 24 23 22 23 23 23 23 24 24 22 22 21 20 20 19 19 18 17 18 18 16 14 12 10 10 12 13 11 10 12 12 9 9 11 9 8
11 11 10 8 7 6 8 11 12 11 9 10 11 8 9 12 11 10 7 5 4 4 6 12 14 6 1 7 7 4 6 3 4 7 10 15 18 18 17 15 17 22 18 14 19 23 21 22 24 23 23 23 22 23 23 23 23 24 24 24 23 22 21 20 20 20 19 19 19 19 18 16 14 11 10 11 13 13 12 13 15 11 9 11 10 9
5 7 9 7 8 9 8 11 13 9 9 10 6 8 9 10 9 6 5 3 3 5 6 12 15 12 4 5 8 5 7 7 6 7 9 12 14 15 15 14 15 19 18 17 21 23 19 19 23 23 22 23 23 23 23 23 24 25 25 25 25 24 22 21 20 20 21 20 20 20 19 17 16 14 12 12 13 14 14 13 14 12 10 10 10 9
5 7 8 8 11 11 10 11 9 5 10 10 6 8 7 7 7 6 6 5 5 6 8 13 12 14 7 4 9 9 10 8 5 6 7 9 12 13 14 15 14 14 16 19 22 23 20 18 22 24 23 23 23 23 24 23 24 25 24 25 26 25 24 22 21 21 21 22 21 20 20 19 18 17 15 15 14 15 15 14 13 12 11 11 10 9
7 8 5 7 12 10 10 6 5 3 9 8 6 8 8 7 7 7 7 7 7 7 9 15 10 9 6 6 10 12 15 11 5 4 6 9 11 11 12 14 14 13 14 20 24 23 23 21 20 23 24 24 25 25 25 24 24 25 25 26 26 26 26 24 22 22 21 22 22 20 19 19 19 18 17 16 15 14 14 14 13 13 13 13 12 11
7 7 6 11 11 9 11 7 6 5 9 9 7 9 8 7 7 7 7 7 8 9 11 14 8 6 6 7 10 10 13 15 13 9 5 9 11 9 10 10 13 16 15 20 23 23 25 23 20 22 24 26 26 25 25 25 25 26 26 26 27 27 26 25 24 23 22 22 22 21 20 19 19 18 17 17 16 15 15 15 14 13 13 14 14 13
8 6 10 13 6 9 13 10 2 3 9 10 7 9 9 8 7 7 7 8 8 9 10 10 7 8 7 7 10 12 13 13 13 13 14 17 14 9 9 7 10 16 16 17 18 19 22 20 18 21 22 24 27 25 24 25 25 27 27 27 27 27 27 26 25 24 23 23 22 22 21 20 20 18 17 17 16 16 15 16 15 13 13 13 14 14
11 9 11 9 4 9 15 11 4 5 7 8 6 8 9 8 8 5 6 8 9 8 6 5 4 8 9 8 11 14 14 13 14 14 17 19 14 9 7 7 8 10 11 12 13 15 18 17 18 21 21 23 26 25 24 25 26 26 27 28 27 27 28 27 26 25 25 24 23 23 22 22 21 20 19 18 17 17 16 16 16 15 14 13 14 15
9 6 13 11 5 10 17 13 5 5 5 6 9 10 9 9 10 6 6 9 9 8 5 7 8 9 9 8 10 13 12 13 14 15 17 17 13 9 7 8 10 8 8 10 12 15 16 17 20 22 21 21 24 24 24 24 26 26 26 27 27 27 27 27 26 26 26 25 24 24 23 23 23 22 21 20 18 18 17 17 17 16 16 15 15 15
4 5 12 11 7 9 12 9 5 9 10 6 6 6 8 10 9 4 3 6 8 8 5 12 15 12 9 6 8 13 13 12 12 14 17 17 15 12 8 7 8 9 10 10 12 15 17 17 20 21 20 19 22 24 23 23 25 26 25 26 26 26 26 27 27 26 26 27 26 25 24 24 24 24 23 22 20 19 18 17 17 17 16 16 15 14
5 4 9 9 8 8 7 3 6 13 16 10 4 6 6 7 6 4 2 4 7 8 5 14 17 12 9 7 9 12 12 12 12 12 14 16 16 14 9 8 11 10 7 8 10 14 16 17 17 18 17 17 18 20 21 22 21 20 21 23 25 25 25 25 26 26 27 28 27 27 26 24 24 24 24 23 21 20 19 19 18 17 17 17 16 15
6 3 7 7 8 8 6 6 7 10 12 10 7 7 8 6 4 6 6 5 5 7 6 11 11 6 6 8 11 12 11 11 12 11 12 18 18 14 11 9 12 14 11 7 7 5 8 12 14 15 15 15 16 17 17 19 20 18 19 21 22 24 25 25 25 25 27 28 28 28 27 26 25 25 25 24 22 22 21 20 19 18 18 18 18 18
4 2 4 6 7 5 6 9 9 8 9 8 6 7 8 5 4 4 7 6 5 6 6 9 7 5 6 7 8 12 11 10 12 12 14 18 17 15 14 11 10 10 11 13 14 12 5 5 9 12 14 14 17 21 18 18 21 21 20 22 22 22 24 26 26 26 26 27 27 27 27 28 27 26 25 25 25 24 23 22 21 20 19 19 19 19
2 2 0 5 7 6 7 8 4 1 2 4 6 7 7 6 4 5 7 8 7 6 2 9 8 6 7 7 7 9 10 11 14 16 15 17 18 16 15 13 10 9 9 14 17 17 15 9 7 10 13 14 16 22 21 18 19 18 20 23 23 22 26 27 25 26 27 26 27 26 25 26 27 27 27 26 26 26 24 24 24 22 21 21 20 20
6 4 4 1 4 3 5 6 1 3 6 7 6 5 5 6 6 7 5 6 7 2 11 10 7 7 6 7 8 8 10 12 16 19 17 16 18 16 14 13 13 12 12 14 14 16 19 16 9 7 8 11 15 19 20 21 21 19 19 22 24 24 26 26 24 25 26 26 27 26 25 26 25 26 27 26 26 27 25 25 25 25 24 22 22 22
7 3 3 3 1 3 4 2 3 3 5 6 5 4 4 2 3 5 3 4 4 3 9 8 7 7 7 7 9 12 13 13 15 18 16 15 16 16 14 13 14 15 15 15 14 15 19 21 18 12 9 6 8 15 18 20 22 22 19 20 23 26 26 25 23 23 24 24 26 26 26 26 25 25 26 26 26 26 26 25 25 26 26 24 23 23
6 3 1 2 4 4 4 3 5 6 5 5 7 5 3 5 8 8 4 3 5 4 3 5 6 7 7 8 10 12 13 13 14 15 13 13 14 15 15 14 14 16 16 17 17 16 17 22 24 19 14 11 8 9 12 14 16 19 18 17 19 21 22 23 22 22 23 23 24 26 27 26 26 25 25 25 25 25 26 25 25 26 27 27 25 23
5 3 2 2 3 3 3 1 3 7 5 4 7 5 5 6 7 7 4 2 4 4 6 7 7 8 8 9 10 10 10 11 14 14 12 12 12 13 14 14 14 15 16 18 19 18 17 19 23 23 19 14 11 10 9 8 7 6 7 11 16 15 13 15 17 19 21 22 24 28 29 27 26 25 25 25 25 24 25 25 25 25 26 27 27 25
4 4 1 2 3 2 2 5 4 3 5 8 10 6 4 6 6 4 4 2 2 3 4 9 12 12 11 11 11 11 11 10 11 11 11 12 12 12 13 14 15 14 15 17 18 19 20 19 19 22 21 18 13 10 11 11 10 8 6 4 11 14 9 11 15 18 20 22 25 28 29 28 26 25 24 24 24 25 25 25 25 25 26 27 27 27
4 4 2 4 3 3 4 6 6 5 5 11 10 5 5 6 6 5 6 2 3 2 2 10 15 15 13 13 13 11 11 10 10 10 10 10 11 11 13 14 15 15 15 16 17 18 19 20 20 20 21 20 16 9 7 8 10 8 7 6 5 12 12 12 16 19 21 22 24 27 27 27 27 26 24 22 23 25 26 25 25 26 26 26 26 27
4 6 3 4 6 3 3 6 5 8 7 1 5 3 3 5 5 8 9 4 5 3 5 9 10 12 13 13 14 13 12 11 10 11 11 10 10 10 11 13 14 15 15 15 16 17 17 18 20 20 20 21 19 14 9 9 13 12 7 4 5 8 8 9 12 17 20 21 23 27 28 26 25 26 27 25 22 24 27 27 26 26 27 27 26 26
2 5 5 3 3 2 3 5 5 6 6 5 3 2 1 4 5 7 7 4 4 4 11 12 10 11 11 11 12 14 16 15 11 9 10 10 10 10 10 12 12 13 15 15 15 16 16 17 18 20 21 20 18 17 15 14 13 11 8 1 4 5 5 7 8 9 12 16 19 23 26 26 24 25 28 28 25 25 26 28 29 27 26 27 27 26
1 2 5 5 5 4 5 4 4 6 4 3 5 3 2 5 5 3 4 2 2 5 11 13 12 10 10 13 15 14 14 14 10 9 8 8 8 8 10 11 11 12 13 13 14 14 15 16 17 18 20 20 19 17 18 17 15 12 9 5 3 3 5 9 10 8 7 10 15 18 21 20 19 20 22 23 26 27 26 29 31 29 27 28 28 27
3 2 1 3 5 6 7 8 8 8 6 7 10 7 5 7 6 4 4 3 3 6 9 12 10 7 10 16 18 17 15 13 10 9 8 7 5 6 8 9 9 11 11 12 13 13 14 15 16 17 17 17 19 19 17 17 16 14 12 8 6 4 3 6 7 9 7 6 9 14 17 18 18 19 19 19 23 25 25 27 30 31 30 27 27 28
3 3 2 3 5 7 8 7 6 6 6 7 10 11 10 8 7 7 7 5 3 4 6 9 8 7 10 13 12 13 16 15 12 10 7 6 5 6 8 7 7 9 11 12 13 13 14 14 14 15 16 15 16 17 17 16 15 15 14 10 9 7 1 2 2 4 6 5 5 7 10 14 18 21 21 21 22 23 23 23 26 30 30 25 23 25
2 4 4 2 4 7 7 7 3 5 6 4 3 7 12 12 10 10 8 6 4 3 2 5 12 13 12 11 10 9 12 16 14 11 11 8 5 5 8 9 8 8 10 11 12 12 13 14 14 14 14 14 14 14 15 16 14 12 13 11 10 12 8 4 5 7 5 3 4 6 7 10 15 18 19 20 22 23 23 24 25 27 27 25 23 23
2 4 5 3 5 6 3 6 4 5 3 2 7 3 2 5 6 6 3 4 6 6 5 7 14 15 11 9 10 9 10 14 13 11 11 10 7 5 4 7 8 8 9 10 11 11 12 13 14 14 14 13 13 13 13 15 14 12 11 10 10 13 13 9 8 9 8 7 6 7 8 10 13 14 14 17 20 21 22 23 24 24 25 24 24 25
2 3 4 4 4 5 3 5 5 1 3 7 7 7 6 5 2 3 4 3 4 6 7 9 10 11 11 11 14 13 11 9 8 10 13 11 8 5 2 4 9 8 8 9 10 11 11 12 13 14 14 13 12 13 14 14 14 13 12 11 10 11 12 10 8 9 11 11 11 10 9 9 12 13 13 14 16 18 18 19 21 23 23 23 24 25
5 3 3 3 3 5 6 5 5 4 4 5 5 4 2 2 2 3 3 3 4 4 7 10 10 9 10 12 14 13 9 5 3 9 14 13 10 6 2 7 6 4 6 7 8 9 9 11 13 12 13 13 12 13 14 14 13 12 12 13 12 11 10 9 8 8 10 10 11 12 13 12 11 12 15 15 17 18 17 17 19 21 22 22 22 22
4 3 3 3 3 4 5 6 6 6 5 5 7 7 4 3 4 2 4 4 8 8 7 10 12 11 10 9 10 11 8 4 3 6 11 13 13 11 5 3 3 3 6 6 7 9 9 11 12 13 13 12 11 13 15 13 11 11 12 14 14 14 13 12 11 11 11 10 9 10 12 15 14 10 13 17 18 20 18 15 16 19 22 22 21 21
3 3 3 4 4 3 4 6 6 4 1 4 9 10 8 7 7 4 4 5 7 8 8 9 11 10 10 10 10 9 4 4 3 4 6 10 12 11 7 3 2 3 5 6 8 8 9 11 13 13 12 11 12 14 15 13 10 9 11 12 13 14 15 16 17 16 14 13 12 10 10 13 13 9 7 11 14 17 18 16 15 17 20 22 22 23
3 3 4 5 5 4 4 5 4 0 3 7 9 9 8 8 6 5 5 5 9 11 9 10 11 10 9 11 11 7 3 1 5 8 8 8 9 9 5 3 3 4 6 7 8 8 10 12 13 12 12 12 14 15 14 12 10 10 11 11 11 11 12 15 18 19 17 15 14 11 8 7 9 9 7 7 9 11 14 16 17 17 18 20 22 24
4 4 5 6 6 6 5 6 3 2 5 7 8 8 8 6 4 5 2 3 9 11 7 8 12 11 9 10 7 4 5 8 7 7 6 6 7 6 5 3 3 4 5 6 9 10 10 10 10 10 10 12 14 15 13 11 11 12 12 11 11 10 10 12 14 18 20 18 16 14 9 4 5 7 8 9 9 8 10 14 17 16 16 18 20 22
4 4 5 6 6 6 5 6 5 2 4 6 8 9 5 2 2 2 4 6 9 11 8 8 11 10 8 8 6 4 8 8 5 5 5 4 4 4 4 4 3 4 5 7 9 9 9 9 9 9 10 11 12 13 12 12 13 14 14 13 12 12 12 11 10 14 19 18 16 14 11 7 7 9 8 10 11 10 8 10 16 17 15 15 16 19
3 3 5 6 5 5 5 6 6 2 3 5 7 6 2 1 2 7 9 10 11 11 9 8 10 9 7 6 5 3 5 4 3 3 3 2 2 3 3 4 4 4 5 7 8 8 8 9 10 11 11 11 12 12 12 13 14 15 16 15 15 15 13 12 12 13 15 14 13 14 13 10 10 11 10 11 13 13 10 7 9 13 13 13 14 15
3 4 4 3 3 4 5 4 1 2 6 6 6 4 4 6 9 9 10 10 10 9 8 6 7 8 6 5 5 3 2 1 1 1 1 0 1 1 2 3 4 5 6 7 8 8 9 10 11 12 12 12 13 13 13 13 14 15 17 17 17 16 13 13 15 15 13 11 12 15 15 13 12 11 10 9 12 13 12 10 8 7 8 10 12 14
3 2 1 1 2 4 2 1 3 3 6 6 5 7 10 10 9 7 7 8 7 7 7 6 6 8 6 4 3 2 2 2 2 1 1 1 2 2 3 4 5 6 7 7 8 9 10 11 12 13 13 13 13 14 14 14 14 15 16 16 15 15 14 16 17 14 12 13 14 14 15 14 13 11 9 9 10 11 12 14 14 11 9 8 9 11
3 1 1 1 3 5 3 3 4 4 5 5 5 8 10 9 7 6 4 4 4 5 6 5 5 7 8 6 4 3 3 2 2 2 2 2 3 4 5 6 6 7 7 7 8 9 10 12 13 13 14 13 14 14 14 14 14 15 15 15 15 15 16 16 16 15 15 16 14 12 14 15 12 10 11 12 10 8 7 10 13 15 14 12 9 8
8 7 4 3 4 4 3 4 4 3 5 6 5 6 8 8 7 6 4 3 2 3 5 5 5 6 7 6 6 5 4 4 4 4 3 3 4 5 6 6 7 8 8 8 9 10 11 11 12 13 15 15 16 16 15 16 16 16 17 16 16 16 16 16 17 17 17 16 14 13 13 13 12 12 13 11 9 10 9 8 9 11 13 14 12 9
4 6 7 6 6 6 4 2 2 1 3 5 5 5 7 8 8 6 4 4 4 4 4 5 5 6 6 6 7 7 6 5 5 4 3 3 4 5 6 7 8 9 10 10 11 11 10 11 12 14 16 17 18 18 18 18 19 19 19 18 17 16 17 17 17 17 16 15 15 14 13 12 12 12 11 10 10 11 12 12 13 13 12 14 15 14
3 2 4 4 5 7 7 4 3 5 6 6 6 6 5 6 8 8 7 7 6 6 7 6 5 6 6 6 7 8 7 6 5 4 5 5 4 5 6 8 9 10 11 12 11 11 11 12 13 14 16 18 19 20 20 20 20 20 20 20 18 16 17 17 16 16 16 16 16 14 12 12 11 10 11 13 14 13 14 16 18 19 19 19 20 20
2 3 3 4 5 6 3 2 4 3 4 3 4 5 6 6 7 9 12 13 12 11 12 10 7 7 7 5 5 6 7 6 5 5 5 5 5 6 6 7 9 10 11 11 12 12 13 13 14 15 16 18 19 20 21 21 21 21 21 21 19 17 17 18 18 17 17 17 16 14 13 11 11 12 14 17 18 18 18 18 18 19 21 22 22 22
2 2 3 2 4 4 4 8 8 4 3 4 4 4 5 7 9 12 11 14 16 13 12 11 10 11 11 8 6 6 7 7 7 6 6 7 6 6 6 7 9 10 11 12 13 14 14 15 16 16 17 18 18 19 20 21 21 21 21 20 20 18 17 17 18 19 18 18 17 16 15 14 13 13 14 16 17 18 18 18 18 18 19 22 23 23
Wind_Direction
204 211 212 219 221 218 216 223 240 241 239 235 128 224 256 138 117 136 139 143 143 122 101 112 118 132 145 152 149 130 136 185 195 297 272 186 166 171 176 169 165 169 168 168 169 166 167 164 163 163 160 159 158 161 161 158 165 161 157 170 165 162 177 174 166 167 164 161 155 158 166 149 145 151 145 132 124 133 137 130 130 129 131 133 133 131
204 226 222 219 225 226 222 220 235 243 240 236 151 213 254 209 140 134 138 146 152 137 106 118 121 131 146 153 154 131 135 148 140 228 270 230 179 172 177 170 164 169 168 169 170 167 168 167 165 164 164 163 159 163 162 160 168 164 164 170 162 167 181 176 172 167 164 167 161 158 162 160 163 156 145 143 141 143 139 130 131 132 134 132 129 127
206 231 227 223 224 228 235 221 226 243 244 237 178 171 253 236 114 119 132 142 160 149 134 147 134 138 158 155 158 134 135 153 182 204 225 254 219 180 175 171 167 171 170 171 171 170 171 168 166 165 167 167 162 165 164 164 169 165 170 173 164 172 180 176 178 173 171 169 159 161 165 161 165 156 150 159 155 148 138 134 137 135 136 136 130 127
209 225 227 231 225 222 234 227 223 237 242 240 205 184 210 196 170 140 137 149 177 156 141 152 134 133 167 174 187 161 159 166 186 201 196 225 245 198 180 175 172 175 170 171 173 172 173 170 169 169 169 169 166 167 167 168 169 166 177 178 170 175 178 178 181 177 175 170 159 164 168 159 166 171 163 169 169 158 146 139 140 138 139 139 133 132
223 219 216 228 230 221 230 230 223 223 230 239 221 206 206 204 216 168 139 157 170 141 139 142 113 109 182 199 215 183 177 171 173 182 185 219 242 226 199 182 177 181 172 172 176 174 175 173 172 172 172 172 170 171 171 171 171 171 182 183 175 177 176 179 182 177 178 174 164 165 171 164 167 175 162 157 161 157 150 145 144 143 140 139 136 135
230 223 207 219 231 221 225 228 216 210 227 228 205 216 219 216 229 155 139 159 152 133 153 148 124 173 195 197 204 185 174 166 166 165 170 210 221 208 222 203 183 183 176 175 177 177 178 175 174 175 175 176 174 174 175 174 173 176 186 185 180 180 178 181 184 180 184 181 170 168 172 167 165 168 159 153 155 152 150 150 154 149 142 142 140 140
235 228 204 214 224 213 222 231 206 196 230 226 189 210 211 208 235 206 151 175 173 151 173 177 146 140 183 201 198 185 170 161 169 171 160 181 205 206 208 207 195 184 179 180 180 180 181 177 177 177 178 180 178 177 177 176 175 180 188 185 182 184 181 183 184 184 188 183 177 175 172 173 173 172 167 156 154 159 158 157 164 159 147 146 143 145
230 228 210 215 218 201 213 228 201 199 220 231 201 206 201 194 229 232 197 217 211 148 170 188 150 122 171 197 181 166 156 156 164 173 163 169 192 207 195 195 203 191 179 182 184 184 184 180 179 179 181 183 180 178 179 178 178 184 190 186 185 187 184 187 186 185 191 184 179 179 174 178 182 178 173 157 154 172 177 167 168 165 153 149 150 155
221 224 212 210 205 184 209 221 218 211 210 231 224 208 192 199 231 232 214 225 216 156 171 179 143 118 159 134 97 106 126 162 171 175 185 175 180 191 190 191 198 192 182 182 187 186 185 183 182 182 183 184 183 181 180 180 181 187 193 188 186 189 188 189 187 187 192 188 183 182 179 179 179 180 180 163 159 174 177 162 162 171 165 155 160 166
216 205 188 201 208 196 212 221 226 224 213 229 242 230 196 199 229 240 229 230 236 220 190 176 159 138 166 133 116 130 144 174 196 186 197 183 173 176 181 185 189 191 188 186 190 186 185 188 186 185 186 187 186 182 181 182 181 186 193 192 188 189 191 190 188 190 192 190 189 188 184 179 172 179 187 175 169 172 170 161 163 178 174 160 168 171
220 176 168 198 225 220 220 220 223 225 218 215 228 245 210 188 212 234 245 258 254 246 222 205 181 148 138 144 142 162 146 155 195 194 193 183 172 173 177 180 183 187 190 193 193 188 188 194 191 189 189 189 188 183 182 183 182 184 192 196 192 189 193 192 189 191 191 192 195 193 191 184 174 179 188 185 183 178 174 172 172 179 175 167 174 170
222 205 187 200 213 230 247 223 209 210 223 214 193 227 201 164 206 212 212 231 229 224 226 235 202 140 135 155 141 140 135 154 197 182 178 169 165 176 180 184 184 178 187 197 195 191 193 194 192 193 192 192 191 185 184 184 184 186 191 197 195 191 195 195 191 192 192 193 196 195 197 193 183 183 188 189 193 190 183 181 180 180 177 172 174 174
215 211 195 214 197 218 265 222 177 205 228 220 184 211 204 172 202 205 202 219 221 219 222 232 215 126 109 115 120 126 135 151 173 174 193 167 156 175 178 183 183 167 176 192 193 193 193 188 189 194 194 194 194 189 186 186 185 186 191 197 197 195 196 198 195 194 195 196 198 197 199 201 196 192 193 192 195 198 190 185 187 185 180 177 176 182
206 176 183 240 194 187 257 226 165 195 215 218 196 198 206 189 191 202 213 216 216 222 217 218 203 122 114 119 119 118 120 132 141 143 145 124 132 162 166 175 184 177 177 186 190 192 189 188 190 192 193 196 197 193 189 189 189 188 191 198 200 198 198 200 200 198 198 199 200 201 200 202 203 200 200 198 196 200 195 191 195 192 186 185 182 182
207 188 189 236 191 163 240 249 208 224 206 211 215 200 206 214 205 200 210 209 212 221 204 196 181 139 140 144 132 121 110 109 118 119 105 97 103 130 149 162 181 183 180 179 186 186 183 191 199 195 195 196 198 198 193 191 193 193 194 200 202 201 199 201 202 201 201 202 202 204 203 204 206 206 206 205 201 203 200 196 199 196 194 195 188 183
216 222 171 199 223 186 223 247 301 288 218 188 208 218 214 226 234 228 229 220 214 217 191 163 130 113 125 144 134 125 123 118 112 112 108 103 104 111 119 125 148 172 175 175 188 188 182 188 200 204 203 198 197 199 198 195 195 196 198 203 205 204 203 203 204 203 203 205 205 205 205 205 207 207 208 209 205 206 205 202 202 200 199 200 195 190
218 201 139 154 223 208 215 233 245 265 255 178 192 223 227 234 246 247 245 241 228 219 180 121 106 112 131 147 135 124 120 116 115 114 107 101 104 105 100 113 130 147 163 176 188 197 200 196 199 205 204 198 196 198 201 200 198 198 200 205 207 206 206 207 207 206 205 206 207 207 207 207 207 206 207 210 209 209 209 208 207 205 204 206 203 199
245 141 133 160 198 197 213 248 254 244 256 225 187 234 241 235 251 270 270 251 227 218 175 130 134 146 156 156 140 133 122 113 112 109 105 100 95 94 92 94 101 121 148 168 177 190 205 206 205 208 202 197 197 198 202 199 196 200 202 206 210 209 210 211 212 211 209 208 209 210 209 208 209 208 206 209 212 210 209 210 210 208 208 210 206 199
278 141 140 181 198 184 191 250 254 243 253 265 304 310 269 234 234 215 240 262 220 215 184 140 143 154 157 151 145 139 130 123 113 102 99 95 86 78 75 60 49 66 114 152 163 178 194 201 206 207 201 199 198 201 209 204 196 197 198 203 210 212 211 213 214 215 213 212 212 212 212 211 211 212 208 206 210 210 206 209 211 208 208 213 207 194
281 157 143 184 185 166 175 211 225 229 241 255 274 263 241 245 246 200 214 266 240 223 197 148 143 140 127 136 141 137 134 126 113 102 92 87 82 72 61 44 32 41 56 83 107 138 186 197 201 198 195 198 200 200 206 210 208 206 200 197 203 209 212 213 213 215 215 215 215 216 217 214 212 215 213 205 206 210 208 208 211 209 208 214 211 197
278 191 147 167 165 161 183 203 213 209 213 222 230 229 220 234 275 224 211 231 255 252 204 146 120 92 103 126 141 134 129 124 110 100 90 84 83 77 66 47 34 50 57 54 51 44 54 165 186 191 189 193 202 201 197 204 211 213 213 208 203 207 214 215 213 214 215 215 215 215 218 220 215 214 216 210 206 209 209 209 210 209 208 212 214 207
338 296 219 156 174 203 187 178 196 256 281 254 230 226 217 210 236 240 212 210 242 276 133 129 121 107 112 128 149 140 124 119 108 99 94 90 86 80 73 62 53 58 52 45 42 38 43 72 132 171 187 194 202 203 200 202 206 208 214 215 212 210 214 217 216 215 214 214 215 214 216 222 219 215 216 214 210 209 209 210 211 209 209 210 212 212
16 315 309 176 176 184 139 129 99 356 336 306 266 238 222 208 219 233 221 220 230 138 92 110 124 117 125 134 141 131 109 106 103 99 99 96 89 80 72 68 64 55 45 45 47 44 47 55 78 119 165 195 205 204 204 209 211 211 212 214 216 217 217 221 222 220 219 217 216 215 214 218 220 219 218 214 212 212 211 212 213 211 208 209 212 211
354 280 309 354 128 114 101 135 253 285 302 280 248 243 252 244 295 281 301 341 278 159 102 111 129 131 149 142 124 115 109 105 98 96 100 101 99 95 82 67 59 54 53 53 53 60 67 62 57 64 83 115 188 202 205 211 216 218 218 216 218 221 221 221 223 226 227 224 221 217 216 218 218 218 218 214 212 213 212 213 215 214 211 208 212 213
331 256 252 276 203 171 157 192 221 226 250 243 214 226 310 356 353 335 343 360 289 283 53 90 125 134 145 138 126 124 123 114 98 92 97 96 95 97 91 80 67 57 54 54 54 65 80 72 59 55 59 72 108 170 192 203 215 223 229 227 223 224 228 227 224 226 228 228 230 224 219 220 219 217 217 214 213 215 215 214 214 217 217 210 210 215
325 316 309 267 234 197 175 251 227 199 212 251 237 253 321 329 329 338 338 302 283 332 38 85 125 136 139 137 131 126 124 116 105 104 103 94 88 87 84 81 76 66 56 54 56 59 68 73 68 61 51 53 76 103 119 131 147 181 216 228 224 222 236 239 227 225 227 227 230 227 222 221 221 220 221 218 216 217 217 217 216 217 220 217 211 213
319 312 4 78 341 349 17 329 314 178 192 219 230 247 284 293 310 328 312 326 15 2 54 114 135 144 148 145 135 125 120 113 108 111 108 103 101 96 89 83 78 75 67 60 57 55 56 61 69 68 58 47 52 76 93 96 99 111 118 164 216 216 234 249 227 221 229 230 227 226 224 224 224 224 225 225 223 223 221 220 221 219 221 223 219 213
309 289 151 138 253 298 356 337 340 344 267 217 206 212 233 269 318 300 264 301 38 352 123 136 144 149 151 147 137 126 121 120 120 117 108 103 100 94 95 93 82 76 72 66 60 55 53 52 56 64 67 59 51 57 83 79 67 84 111 110 174 202 217 236 229 225 231 233 229 227 225 225 225 226 226 226 227 230 228 225 225 224 223 226 225 219
308 285 254 198 216 228 321 321 317 330 334 123 132 113 216 245 276 268 263 299 5 26 138 151 152 144 145 148 141 127 117 113 113 117 117 109 99 93 89 85 78 74 72 68 64 59 54 51 50 53 61 65 65 66 64 55 57 71 93 129 184 193 203 221 229 233 236 235 231 229 228 227 227 229 230 227 224 227 231 230 229 228 226 227 227 223
302 303 314 288 259 237 259 289 291 307 353 50 102 94 11 277 264 259 270 315 20 103 145 152 146 138 142 146 140 128 115 104 95 108 123 114 104 104 96 81 71 69 68 65 63 61 58 54 49 47 49 54 65 76 70 53 51 67 76 95 226 220 214 215 224 235 240 240 234 226 224 226 229 233 233 231 226 225 229 232 232 231 229 229 229 227
216 332 352 324 300 270 226 227 266 279 306 305 258 229 236 271 269 263 274 311 78 149 151 144 143 146 136 124 124 125 122 117 108 103 105 101 103 103 94 83 71 63 64 65 61 57 57 55 48 46 45 42 47 63 71 64 57 58 61 53 357 299 239 222 225 232 239 247 240 227 222 227 234 237 237 233 229 229 230 232 232 233 233 231 230 229
237 257 312 264 271 263 224 208 228 245 254 262 260 246 220 231 240 233 227 210 199 196 168 149 150 154 140 133 131 130 133 134 129 116 92 66 74 88 80 75 68 58 56 60 60 54 51 51 46 43 43 41 38 41 53 66 68 59 55 55 38 2 262 225 231 243 250 256 247 238 237 240 244 244 242 236 232 236 239 238 234 233 234 236 234 230
261 269 247 210 243 250 217 197 223 243 241 247 248 237 221 218 229 234 221 200 215 244 205 169 149 131 136 142 141 138 141 142 144 147 129 76 69 104 97 81 59 53 53 50 53 55 49 45 44 41 39 40 37 35 39 49 61 66 62 56 47 38 354 259 344 307 278 266 258 255 249 244 242 243 242 238 238 244 249 249 245 237 237 245 246 237
251 277 273 239 255 249 194 157 189 240 236 255 269 227 214 207 213 226 219 183 130 27 355 140 137 142 153 156 159 165 154 141 138 148 150 134 122 126 111 94 67 48 52 47 43 50 48 41 41 38 35 37 35 33 36 36 40 58 66 62 53 48 39 358 357 360 336 302 273 261 251 244 244 246 247 245 245 251 253 254 255 248 244 256 263 255
190 235 260 264 267 264 165 147 203 238 221 69 45 39 174 180 203 216 192 153 131 96 79 118 137 152 166 156 144 145 142 139 140 149 157 155 148 156 146 112 90 54 44 44 36 41 44 37 34 32 29 32 29 25 31 33 27 26 37 55 66 56 41 24 17 21 13 1 339 298 274 262 253 252 256 258 257 258 256 253 255 253 250 253 258 256
294 253 253 251 252 265 235 190 204 209 95 96 77 57 61 72 94 133 119 111 113 112 121 130 136 147 152 137 125 126 142 157 154 147 151 153 154 177 279 63 85 62 39 40 31 31 36 31 29 26 22 24 23 18 21 26 24 15 11 23 44 48 36 25 26 37 37 29 17 1 337 305 277 263 262 263 264 267 266 258 251 252 253 249 246 246
300 316 299 265 234 246 255 230 182 145 140 145 130 118 132 128 129 178 202 168 146 151 145 143 152 161 156 144 130 125 134 143 129 145 154 149 141 145 45 41 72 60 37 38 25 23 25 19 18 16 14 17 14 9 14 20 18 13 4 2 11 19 18 13 10 17 25 28 26 22 12 355 326 292 276 268 266 268 272 270 259 252 252 250 243 242
267 298 320 306 253 234 256 254 220 203 208 186 151 135 132 113 106 157 245 199 172 187 178 160 170 174 160 146 128 116 120 153 185 180 168 151 137 139 134 91 91 55 33 19 2 8 7 357 358 2 6 7 357 357 10 16 10 7 5 1 3 4 357 353 352 355 359 3 11 26 21 9 0 331 294 284 278 272 270 274 270 256 248 248 248 247
254 263 277 278 266 249 253 255 243 240 290 101 114 112 105 99 104 134 222 205 164 162 162 161 169 170 159 147 136 128 154 206 176 113 115 122 123 128 132 114 63 22 11 355 349 357 347 329 333 346 355 351 342 349 3 4 355 360 4 360 3 6 355 344 343 348 353 353 356 19 28 6 360 1 323 295 290 285 276 272 273 263 248 244 248 252
236 242 234 240 253 250 243 248 252 256 89 104 109 110 112 118 136 181 211 183 145 144 156 162 158 153 141 133 137 152 189 172 101 89 83 88 97 100 97 72 16 350 347 346 343 336 321 314 321 335 340 333 333 344 352 348 342 348 354 354 359 6 357 344 340 342 346 349 349 4 26 5 351 5 358 320 304 298 283 268 267 266 254 247 249 252
217 223 227 234 241 236 233 245 254 88 103 125 130 123 122 134 175 204 201 120 127 135 149 160 154 148 135 134 149 155 111 95 96 98 87 77 78 75 63 50 22 360 349 341 334 327 324 327 331 332 327 324 330 338 338 334 335 339 341 344 348 351 346 341 338 338 340 343 345 351 4 7 356 4 360 345 334 317 288 266 261 262 256 253 256 256
220 215 220 231 241 241 238 241 234 165 124 143 133 114 112 181 221 146 106 103 115 117 114 131 141 138 135 148 157 110 96 102 100 91 80 63 58 55 40 32 23 9 354 342 341 340 338 338 334 327 324 325 326 330 328 322 321 324 328 332 334 334 334 332 332 334 337 340 343 346 346 347 352 353 351 352 352 346 324 278 257 254 255 259 264 264
227 229 225 219 229 240 240 244 247 214 146 154 137 111 50 328 116 111 107 104 103 101 97 107 130 143 152 158 153 108 99 109 80 69 79 53 35 26 13 22 23 8 351 342 343 346 343 337 332 328 327 324 318 317 322 322 315 310 312 317 322 325 326 324 326 332 337 339 340 341 340 337 339 343 347 349 345 345 353 336 275 266 272 274 273 271
225 240 252 235 230 243 238 239 260 123 135 139 135 115 78 90 112 118 115 116 118 119 117 113 129 148 155 148 141 137 134 158 334 20 124 104 10 359 6 13 5 356 353 348 343 340 336 332 330 326 323 323 318 311 308 312 313 310 308 310 315 319 320 319 323 330 332 328 327 334 338 335 331 337 348 343 326 323 334 344 339 329 319 300 288 283
208 198 311 321 277 290 304 66 82 120 148 142 123 116 111 111 117 113 112 132 144 142 140 145 150 156 160 154 142 156 210 235 240 236 231 281 291 333 355 352 350 350 349 345 341 335 326 322 322 322 321 321 321 316 308 306 311 314 313 310 307 307 309 315 321 323 317 316 322 329 331 331 334 337 330 316 311 318 327 328 331 339 340 323 309 303
228 204 36 331 266 280 275 186 154 156 163 153 128 119 120 127 132 126 126 147 148 131 134 145 155 157 162 166 164 185 218 222 230 250 272 291 302 324 334 335 339 341 338 338 335 328 322 320 319 319 319 318 319 319 316 311 309 305 302 303 305 304 305 308 309 306 305 311 318 324 325 328 331 322 313 314 315 312 309 315 321 323 322 317 313 312
216 216 223 245 241 244 233 182 165 169 171 174 173 152 143 150 154 154 159 153 135 144 151 151 152 153 160 172 180 194 213 221 237 253 263 293 299 303 315 323 327 327 328 328 325 321 322 321 318 317 318 317 318 319 316 311 307 298 292 297 305 305 300 294 293 296 302 308 311 315 319 322 321 315 316 321 317 299 289 293 306 313 313 310 307 304
206 207 214 223 227 234 235 160 127 173 193 198 211 196 174 173 172 166 160 144 135 149 155 155 168 177 189 201 197 196 207 218 233 246 252 272 284 290 303 312 315 318 319 319 319 320 321 318 315 315 315 315 316 318 316 314 311 307 301 299 301 302 299 296 294 296 298 300 305 309 311 311 315 319 314 305 303 307 304 295 289 289 289 288 290 294
101 195 225 223 226 239 247 246 239 229 217 215 230 236 221 197 189 190 191 181 170 174 179 183 196 206 212 208 193 191 206 220 232 242 247 259 276 285 293 299 305 310 314 316 317 318 316 313 313 313 313 314 316 315 315 313 312 312 311 307 303 301 300 298 295 293 293 296 300 305 306 306 309 307 293 284 290 299 298 295 297 297 293 288 287 291
206 253 267 251 233 230 234 17 6 298 243 239 250 255 261 252 238 231 215 197 192 198 199 197 204 217 223 220 204 204 216 224 228 240 254 267 275 277 282 293 301 306 310 312 313 314 315 315 314 312 311 311 312 313 313 312 310 310 310 310 308 304 300 298 296 291 290 292 294 298 301 301 301 298 292 291 296 300 299 298 301 301 299 297 295 290
333 346 347 294 271 291 28 45 37 11 310 315 317 290 275 272 279 282 256 213 203 212 219 216 220 225 223 222 223 227 232 233 234 246 261 271 277 282 285 291 297 301 305 309 311 313 316 315 314 314 312 310 309 309 309 309 309 308 307 308 308 304 299 296 296 293 290 289 291 293 294 294 295 297 296 298 302 305 304 302 299 298 300 302 300 294
Height
1476 1480 1481 1480 1476 1472 1469 1468 1466 1462 1461 1464 1473 1484 1479 1482 1493 1489 1488 1488 1487 1499 1506 1504 1507 1509 1508 1509 1510 1510 1511 1513 1515 1517 1519 1516 1516 1518 1518 1520 1524 1527 1530 1532 1534 1537 1538 1540 1542 1544 1546 1548 1550 1551 1552 1554 1555 1557 1558 1559 1560 1561 1562 1563 1565 1566 1568 1569 1571 1573 1574 1576 1577 1579 1580 1581 1582 1584 1584 1585 1585 1585 1585 1586 1586 1587
1475 1480 1477 1472 1469 1465 1463 1463 1464 1461 1460 1463 1474 1484 1480 1479 1485 1483 1486 1488 1485 1497 1507 1504 1506 1509 1507 1508 1509 1509 1512 1514 1515 1519 1522 1519 1517 1518 1518 1520 1524 1527 1529 1532 1534 1536 1538 1540 1542 1544 1546 1547 1549 1550 1552 1554 1555 1556 1558 1559 1560 1561 1562 1563 1565 1566 1568 1569 1571 1573 1574 1576 1577 1578 1580 1581 1582 1583 1584 1584 1585 1585 1585 1586 1586 1587
1478 1478 1471 1464 1461 1461 1461 1459 1462 1462 1461 1464 1473 1486 1489 1481 1480 1483 1486 1488 1485 1494 1506 1506 1508 1511 1507 1506 1507 1508 1511 1514 1515 1518 1521 1523 1521 1519 1519 1521 1524 1526 1529 1531 1534 1536 1538 1540 1542 1544 1546 1547 1549 1550 1552 1554 1554 1556 1558 1558 1560 1561 1562 1563 1565 1566 1568 1569 1571 1573 1575 1576 1577 1578 1579 1580 1581 1583 1583 1584 1585 1585 1585 1586 1587 1588
1479 1473 1465 1459 1458 1461 1462 1458 1460 1463 1464 1465 1469 1482 1490 1483 1481 1487 1490 1491 1486 1488 1500 1505 1509 1512 1510 1509 1509 1509 1511 1511 1514 1518 1520 1523 1524 1521 1520 1521 1524 1525 1528 1530 1533 1535 1537 1540 1541 1543 1545 1547 1548 1550 1551 1553 1554 1555 1557 1558 1559 1561 1562 1563 1564 1566 1567 1569 1571 1573 1575 1576 1577 1578 1579 1580 1581 1582 1583 1584 1585 1585 1585 1586 1587 1588
1471 1463 1458 1457 1457 1459 1462 1460 1460 1466 1469 1465 1463 1472 1480 1477 1473 1474 1481 1488 1487 1488 1494 1502 1516 1519 1514 1515 1513 1509 1512 1512 1514 1518 1521 1523 1523 1523 1522 1522 1525 1525 1527 1530 1532 1535 1537 1539 1541 1543 1545 1546 1548 1549 1551 1552 1553 1555 1556 1557 1559 1560 1562 1563 1564 1566 1567 1569 1571 1572 1574 1576 1576 1577 1579 1580 1581 1582 1582 1583 1584 1585 1586 1586 1587 1588
1464 1455 1453 1458 1458 1458 1462 1462 1459 1464 1471 1468 1465 1466 1470 1472 1467 1464 1470 1481 1496 1507 1498 1497 1522 1530 1515 1515 1515 1510 1513 1515 1515 1517 1520 1522 1522 1523 1524 1523 1525 1526 1528 1531 1532 1535 1536 1538 1541 1543 1544 1546 1547 1549 1550 1551 1553 1554 1555 1556 1558 1559 1561 1563 1564 1566 1567 1568 1570 1571 1573 1575 1576 1577 1578 1579 1581 1581 1582 1583 1584 1585 1586 1586 1587 1588
1458 1451 1450 1457 1458 1458 1462 1462 1457 1461 1472 1475 1467 1462 1464 1468 1468 1467 1468 1476 1493 1507 1496 1488 1509 1526 1519 1514 1513 1510 1513 1516 1518 1520 1520 1522 1521 1522 1524 1524 1525 1526 1528 1530 1532 1534 1536 1538 1540 1542 1544 1546 1547 1549 1550 1552 1553 1553 1554 1555 1557 1559 1560 1562 1563 1565 1567 1568 1569 1571 1573 1574 1576 1577 1578 1579 1581 1581 1582 1583 1584 1585 1586 1586 1587 1589
1455 1453 1452 1454 1455 1459 1465 1466 1459 1460 1473 1476 1463 1458 1464 1468 1472 1470 1470 1475 1476 1482 1492 1489 1493 1516 1527 1518 1510 1511 1516 1519 1520 1520 1521 1524 1524 1522 1524 1525 1525 1526 1527 1529 1532 1534 1535 1537 1539 1541 1544 1545 1547 1549 1550 1552 1553 1553 1554 1555 1557 1558 1560 1561 1563 1565 1566 1568 1569 1571 1572 1574 1575 1577 1578 1579 1581 1581 1582 1583 1584 1584 1585 1586 1587 1589
1452 1454 1455 1454 1458 1464 1467 1465 1458 1458 1470 1469 1455 1454 1461 1466 1470 1467 1469 1473 1467 1474 1496 1492 1487 1515 1531 1518 1514 1517 1520 1524 1523 1519 1519 1523 1525 1523 1523 1525 1525 1525 1526 1528 1530 1532 1534 1537 1539 1541 1543 1545 1547 1548 1550 1551 1553 1553 1553 1555 1556 1558 1559 1561 1563 1564 1565 1567 1569 1570 1572 1573 1575 1577 1578 1579 1580 1581 1582 1583 1584 1585 1585 1586 1587 1589
1449 1450 1452 1455 1462 1465 1463 1459 1455 1457 1464 1459 1452 1454 1457 1464 1468 1467 1470 1471 1472 1483 1495 1486 1483 1514 1529 1518 1522 1528 1523 1525 1524 1518 1516 1518 1520 1522 1522 1524 1525 1525 1526 1526 1527 1529 1532 1535 1538 1541 1542 1545 1546 1547 1550 1551 1552 1553 1553 1555 1556 1557 1559 1560 1562 1564 1565 1567 1568 1570 1572 1573 1575 1577 1578 1579 1580 1581 1582 1582 1584 1584 1585 1586 1587 1588
1446 1446 1450 1455 1460 1459 1456 1456 1452 1454 1456 1452 1455 1459 1461 1467 1469 1471 1474 1474 1489 1500 1492 1478 1474 1498 1524 1521 1520 1524 1519 1519 1519 1516 1514 1513 1516 1520 1521 1523 1524 1525 1526 1526 1527 1528 1531 1534 1537 1540 1542 1544 1546 1547 1549 1550 1552 1552 1553 1554 1555 1557 1558 1560 1561 1563 1565 1566 1568 1570 1571 1572 1574 1576 1577 1578 1579 1580 1581 1582 1583 1584 1585 1586 1587 1588
1452 1454 1454 1455 1456 1454 1454 1455 1452 1452 1452 1453 1461 1465 1470 1478 1479 1483 1484 1485 1505 1509 1489 1475 1468 1485 1515 1518 1510 1511 1512 1515 1515 1513 1513 1513 1515 1517 1520 1523 1523 1525 1526 1525 1527 1527 1529 1532 1535 1538 1541 1543 1545 1546 1547 1549 1551 1552 1552 1554 1555 1557 1558 1559 1561 1562 1564 1566 1567 1569 1571 1572 1573 1575 1576 1577 1579 1580 1580 1581 1582 1583 1584 1585 1586 1587
1460 1458 1455 1455 1455 1455 1458 1460 1460 1461 1457 1458 1466 1471 1480 1491 1496 1501 1499 1497 1505 1500 1483 1472 1471 1492 1511 1506 1502 1506 1510 1516 1516 1514 1513 1512 1515 1517 1518 1521 1522 1523 1524 1523 1524 1526 1527 1530 1533 1536 1539 1542 1544 1545 1546 1548 1550 1551 1552 1552 1554 1556 1557 1559 1560 1562 1563 1565 1566 1568 1570 1572 1573 1574 1575 1577 1578 1579 1580 1581 1582 1582 1583 1584 1585 1587
1469 1462 1459 1461 1457 1457 1461 1464 1470 1472 1466 1466 1469 1474 1484 1493 1507 1516 1508 1501 1500 1490 1476 1466 1473 1504 1517 1505 1501 1503 1505 1511 1514 1516 1515 1513 1515 1516 1517 1519 1520 1520 1521 1521 1523 1525 1527 1529 1532 1535 1537 1540 1543 1544 1545 1547 1548 1549 1550 1551 1552 1554 1556 1558 1559 1561 1563 1564 1566 1568 1569 1571 1572 1573 1575 1576 1577 1578 1579 1580 1581 1582 1583 1583 1585 1586
1476 1474 1466 1462 1458 1460 1462 1459 1463 1466 1465 1466 1461 1466 1479 1481 1492 1505 1499 1497 1496 1484 1473 1469 1479 1506 1519 1510 1501 1501 1504 1507 1510 1513 1515 1516 1515 1515 1517 1518 1519 1520 1520 1521 1523 1525 1528 1529 1532 1534 1536 1539 1541 1543 1545 1546 1547 1548 1548 1550 1551 1553 1555 1556 1558 1560 1562 1563 1565 1567 1568 1570 1572 1573 1574 1575 1577 1578 1579 1580 1581 1582 1582 1583 1584 1585
1471 1470 1457 1457 1458 1460 1463 1457 1456 1462 1466 1464 1460 1468 1476 1468 1468 1478 1478 1476 1478 1478 1477 1480 1488 1497 1504 1503 1495 1498 1506 1506 1509 1514 1514 1518 1517 1515 1518 1519 1519 1521 1521 1522 1523 1523 1526 1528 1531 1533 1535 1538 1540 1542 1543 1545 1546 1547 1547 1549 1550 1552 1553 1555 1557 1558 1560 1562 1563 1565 1567 1569 1570 1572 1573 1575 1576 1577 1578 1579 1580 1581 1582 1582 1583 1584
1467 1464 1453 1459 1463 1458 1460 1458 1455 1464 1468 1465 1469 1474 1466 1455 1457 1469 1475 1466 1465 1480 1485 1488 1501 1503 1503 1504 1497 1499 1508 1508 1510 1514 1515 1518 1518 1517 1518 1518 1520 1521 1522 1524 1524 1524 1525 1526 1529 1531 1533 1536 1538 1540 1542 1543 1545 1546 1547 1548 1550 1551 1553 1554 1556 1557 1559 1561 1562 1564 1565 1567 1569 1570 1572 1573 1575 1576 1577 1578 1579 1580 1581 1582 1583 1583
1462 1468 1461 1462 1468 1461 1458 1460 1457 1459 1462 1464 1472 1469 1457 1453 1455 1467 1483 1480 1475 1485 1486 1488 1503 1509 1511 1514 1506 1503 1512 1514 1512 1513 1516 1519 1519 1520 1520 1519 1521 1521 1523 1525 1525 1525 1526 1526 1528 1530 1532 1534 1536 1538 1540 1542 1544 1546 1547 1547 1549 1551 1552 1553 1555 1556 1558 1559 1561 1562 1564 1566 1567 1569 1571 1572 1574 1575 1576 1577 1578 1579 1580 1581 1582 1583
1456 1472 1471 1461 1467 1464 1458 1467 1470 1462 1457 1460 1465 1460 1460 1470 1470 1472 1486 1490 1485 1484 1487 1494 1500 1500 1506 1510 1508 1508 1512 1514 1515 1514 1516 1518 1520 1523 1522 1521 1522 1523 1524 1525 1525 1527 1527 1527 1529 1530 1532 1534 1535 1538 1539 1541 1543 1545 1546 1547 1548 1551 1552 1553 1554 1555 1557 1558 1560 1561 1562 1564 1566 1567 1570 1571 1573 1574 1575 1576 1577 1578 1579 1580 1581 1582
1453 1469 1478 1465 1461 1465 1465 1473 1478 1471 1462 1460 1463 1460 1459 1465 1466 1468 1474 1478 1481 1481 1486 1503 1510 1506 1504 1502 1503 1510 1510 1510 1514 1515 1516 1519 1523 1526 1525 1524 1524 1524 1524 1524 1525 1527 1527 1528 1529 1529 1532 1533 1535 1537 1538 1540 1541 1543 1545 1546 1548 1550 1552 1554 1554 1555 1556 1557 1559 1560 1561 1563 1565 1566 1568 1570 1572 1573 1574 1575 1576 1578 1579 1579 1580 1581
1455 1464 1476 1470 1462 1468 1474 1472 1470 1470 1466 1465 1468 1467 1463 1460 1459 1463 1465 1464 1472 1475 1479 1503 1524 1519 1508 1503 1503 1506 1507 1508 1511 1513 1516 1520 1525 1527 1528 1528 1526 1526 1526 1526 1526 1526 1526 1527 1527 1528 1531 1532 1533 1535 1536 1537 1539 1541 1543 1545 1546 1548 1550 1552 1554 1554 1555 1556 1558 1559 1560 1562 1563 1565 1567 1568 1570 1572 1573 1575 1575 1577 1578 1578 1579 1580
1463 1466 1472 1472 1470 1472 1470 1463 1460 1462 1463 1464 1467 1464 1463 1463 1465 1474 1476 1464 1461 1468 1474 1498 1528 1524 1505 1503 1505 1502 1503 1506 1507 1512 1517 1521 1525 1529 1530 1531 1529 1528 1528 1527 1527 1527 1526 1526 1526 1528 1529 1530 1532 1534 1535 1537 1538 1540 1542 1543 1544 1545 1548 1551 1553 1554 1555 1556 1557 1558 1560 1561 1562 1564 1566 1567 1569 1570 1572 1573 1574 1576 1577 1578 1579 1579
1468 1473 1475 1472 1469 1467 1462 1459 1460 1462 1461 1462 1462 1459 1458 1461 1466 1476 1482 1472 1464 1469 1477 1495 1522 1523 1504 1499 1502 1500 1502 1505 1508 1514 1518 1521 1526 1529 1531 1532 1532 1531 1530 1529 1529 1528 1527 1526 1526 1528 1529 1529 1531 1532 1535 1536 1537 1539 1541 1541 1542 1543 1546 1549 1551 1552 1554 1555 1556 1558 1560 1561 1562 1563 1565 1566 1567 1569 1570 1572 1573 1574 1576 1577 1578 1578
1471 1476 1481 1479 1470 1465 1464 1463 1462 1462 1464 1467 1464 1460 1460 1462 1465 1468 1473 1474 1472 1474 1483 1502 1523 1524 1506 1498 1500 1502 1504 1507 1510 1515 1518 1522 1526 1529 1532 1534 1533 1533 1532 1532 1531 1529 1529 1528 1527 1528 1529 1529 1530 1531 1533 1534 1535 1537 1539 1541 1542 1543 1546 1548 1548 1549 1552 1554 1556 1558 1560 1561 1562 1563 1564 1565 1567 1568 1569 1571 1572 1573 1574 1576 1577 1577
1481 1479 1483 1489 1487 1482 1481 1479 1475 1470 1470 1470 1465 1462 1463 1465 1469 1470 1470 1475 1480 1476 1480 1504 1527 1522 1505 1500 1502 1503 1505 1508 1512 1516 1519 1522 1525 1528 1531 1534 1534 1534 1534 1533 1532 1531 1530 1529 1529 1530 1531 1531 1531 1531 1532 1533 1535 1537 1538 1539 1541 1542 1545 1547 1547 1548 1551 1554 1555 1557 1560 1561 1563 1564 1564 1565 1567 1568 1569 1570 1571 1572 1572 1574 1576 1576
1486 1483 1484 1494 1500 1501 1501 1496 1485 1476 1473 1472 1468 1465 1468 1470 1474 1478 1478 1483 1489 1483 1483 1505 1524 1518 1506 1504 1506 1505 1507 1511 1515 1519 1522 1524 1527 1529 1531 1534 1536 1536 1535 1535 1534 1534 1533 1532 1531 1531 1533 1533 1532 1533 1534 1534 1535 1536 1537 1538 1539 1542 1545 1547 1548 1547 1549 1552 1554 1556 1559 1561 1563 1565 1565 1566 1567 1568 1569 1570 1571 1571 1571 1572 1574 1575
1488 1486 1485 1493 1498 1499 1500 1491 1476 1472 1476 1479 1475 1472 1474 1474 1476 1481 1486 1491 1493 1492 1498 1507 1512 1514 1512 1509 1510 1511 1512 1515 1518 1520 1523 1525 1527 1529 1531 1534 1536 1537 1538 1537 1536 1536 1536 1535 1534 1534 1535 1534 1532 1532 1535 1536 1536 1535 1537 1538 1539 1543 1546 1546 1546 1546 1548 1551 1552 1555 1557 1559 1561 1562 1564 1567 1568 1569 1569 1570 1571 1571 1571 1571 1572 1574
1492 1491 1486 1489 1493 1489 1488 1484 1475 1475 1477 1476 1475 1477 1478 1479 1480 1485 1489 1488 1487 1497 1510 1507 1501 1509 1513 1509 1511 1514 1515 1518 1520 1521 1524 1525 1527 1529 1530 1533 1535 1537 1539 1539 1538 1539 1538 1537 1538 1537 1537 1537 1536 1534 1534 1536 1536 1535 1537 1540 1541 1543 1545 1546 1546 1546 1547 1549 1551 1553 1556 1557 1559 1561 1562 1563 1565 1568 1569 1569 1570 1571 1571 1571 1571 1572
1496 1495 1485 1484 1488 1486 1485 1484 1481 1480 1478 1474 1476 1481 1482 1482 1485 1487 1487 1483 1484 1498 1511 1507 1502 1509 1511 1509 1512 1514 1516 1520 1521 1523 1526 1527 1528 1530 1531 1532 1535 1536 1539 1540 1540 1540 1540 1540 1540 1540 1540 1540 1540 1540 1538 1538 1537 1536 1538 1541 1542 1543 1544 1546 1546 1546 1547 1548 1550 1552 1553 1555 1557 1558 1559 1560 1561 1564 1567 1568 1569 1570 1570 1571 1570 1571
1497 1496 1488 1485 1488 1487 1487 1488 1484 1483 1483 1482 1483 1485 1486 1486 1485 1485 1484 1483 1486 1495 1500 1501 1505 1509 1509 1509 1511 1513 1517 1522 1523 1525 1527 1528 1529 1531 1532 1534 1536 1537 1539 1541 1541 1542 1542 1542 1541 1542 1542 1541 1541 1542 1542 1541 1540 1539 1539 1542 1543 1543 1543 1546 1547 1547 1547 1549 1550 1551 1552 1553 1554 1554 1555 1557 1559 1560 1562 1565 1566 1568 1569 1570 1570 1570
1499 1499 1493 1492 1495 1493 1489 1489 1489 1488 1489 1490 1489 1487 1489 1490 1488 1487 1487 1487 1491 1496 1496 1500 1508 1511 1509 1510 1512 1515 1519 1522 1525 1528 1528 1529 1531 1531 1533 1536 1538 1539 1540 1541 1543 1543 1543 1543 1543 1543 1543 1543 1543 1543 1543 1543 1543 1541 1540 1541 1542 1542 1542 1545 1546 1547 1547 1548 1549 1551 1551 1553 1553 1553 1554 1555 1557 1558 1559 1560 1562 1565 1567 1568 1569 1569
1499 1500 1495 1497 1505 1500 1488 1489 1492 1489 1490 1494 1493 1490 1491 1493 1492 1490 1490 1490 1492 1496 1498 1504 1512 1512 1509 1510 1514 1518 1521 1523 1527 1529 1531 1532 1533 1533 1535 1537 1539 1541 1541 1542 1543 1544 1544 1544 1544 1544 1544 1544 1544 1544 1544 1544 1544 1544 1543 1542 1541 1540 1542 1544 1545 1545 1546 1547 1548 1548 1549 1550 1552 1553 1553 1554 1555 1555 1555 1556 1559 1560 1562 1564 1567 1569
1497 1499 1496 1499 1507 1500 1487 1488 1491 1491 1500 1503 1494 1488 1490 1492 1492 1491 1489 1489 1490 1491 1495 1503 1511 1511 1508 1510 1513 1517 1520 1524 1527 1530 1532 1534 1534 1535 1538 1539 1541 1542 1542 1543 1544 1544 1544 1545 1544 1545 1545 1545 1545 1545 1545 1545 1545 1545 1545 1545 1544 1541 1541 1542 1542 1543 1543 1545 1547 1548 1549 1550 1551 1551 1551 1551 1551 1551 1552 1554 1556 1557 1558 1560 1562 1566
1499 1501 1498 1496 1503 1498 1486 1486 1494 1504 1514 1504 1485 1480 1484 1487 1490 1492 1490 1489 1491 1493 1493 1497 1504 1508 1510 1511 1514 1516 1518 1522 1526 1530 1533 1535 1535 1536 1537 1539 1541 1542 1542 1543 1544 1544 1545 1545 1545 1545 1545 1545 1546 1546 1546 1546 1545 1545 1545 1545 1545 1543 1542 1541 1540 1540 1541 1542 1544 1546 1547 1548 1548 1548 1548 1548 1548 1549 1551 1553 1553 1555 1559 1560 1561 1562
1500 1503 1501 1497 1499 1497 1488 1493 1510 1519 1510 1492 1481 1480 1481 1483 1486 1489 1489 1489 1492 1497 1498 1499 1503 1507 1509 1510 1513 1515 1518 1521 1526 1529 1532 1535 1535 1536 1536 1538 1540 1541 1542 1543 1543 1544 1544 1544 1545 1545 1545 1545 1546 1545 1545 1545 1545 1545 1545 1544 1544 1544 1544 1543 1541 1541 1541 1541 1542 1542 1543 1544 1544 1545 1545 1545 1546 1547 1549 1550 1551 1553 1557 1559 1560 1562
1501 1502 1501 1498 1499 1500 1497 1502 1515 1514 1496 1487 1490 1489 1487 1489 1490 1493 1497 1497 1495 1498 1501 1504 1507 1507 1508 1511 1515 1518 1521 1522 1524 1528 1532 1534 1535 1536 1536 1536 1538 1541 1542 1543 1543 1544 1543 1544 1544 1545 1544 1545 1545 1545 1545 1545 1545 1545 1544 1544 1544 1544 1544 1544 1543 1542 1542 1542 1542 1542 1542 1541 1541 1542 1543 1543 1544 1546 1547 1548 1549 1551 1552 1553 1554 1556
1503 1503 1503 1502 1501 1502 1501 1499 1500 1502 1499 1495 1496 1494 1493 1495 1496 1498 1503 1503 1499 1500 1503 1507 1510 1510 1510 1513 1515 1519 1523 1524 1526 1529 1531 1533 1535 1536 1537 1538 1539 1542 1542 1543 1544 1544 1543 1543 1544 1544 1545 1545 1545 1544 1544 1544 1545 1545 1544 1544 1544 1544 1544 1544 1544 1544 1543 1542 1542 1542 1542 1541 1541 1541 1541 1542 1543 1544 1545 1546 1545 1546 1548 1549 1550 1550
1505 1505 1508 1510 1504 1498 1502 1501 1498 1504 1507 1498 1493 1493 1494 1495 1496 1499 1504 1504 1501 1501 1503 1506 1509 1510 1511 1514 1516 1520 1525 1527 1529 1529 1530 1532 1533 1535 1538 1540 1541 1542 1542 1543 1544 1544 1543 1543 1543 1544 1545 1545 1545 1544 1544 1545 1545 1545 1544 1544 1543 1544 1544 1544 1544 1544 1544 1543 1542 1542 1542 1542 1541 1541 1541 1542 1542 1542 1543 1543 1543 1543 1544 1545 1546 1547
1506 1505 1506 1511 1507 1501 1506 1510 1504 1506 1506 1496 1491 1495 1497 1499 1500 1503 1510 1510 1503 1501 1505 1506 1508 1511 1513 1516 1519 1523 1527 1529 1529 1530 1531 1533 1534 1536 1538 1540 1541 1542 1542 1543 1544 1543 1542 1542 1542 1543 1544 1544 1544 1543 1544 1545 1545 1545 1544 1544 1544 1544 1544 1543 1543 1544 1544 1543 1543 1542 1542 1543 1543 1542 1542 1541 1541 1540 1540 1540 1539 1539 1540 1542 1543 1544
1509 1508 1507 1511 1511 1505 1508 1509 1503 1502 1504 1498 1496 1498 1500 1501 1502 1509 1520 1515 1503 1503 1508 1508 1510 1514 1516 1519 1523 1525 1527 1529 1530 1532 1533 1534 1535 1537 1538 1540 1541 1541 1542 1543 1543 1542 1542 1542 1543 1543 1544 1544 1543 1543 1544 1545 1544 1544 1544 1543 1544 1545 1544 1543 1543 1543 1543 1543 1543 1542 1542 1542 1542 1541 1540 1540 1538 1537 1537 1536 1536 1536 1537 1539 1541 1542
1509 1509 1508 1510 1509 1505 1508 1509 1503 1502 1503 1499 1498 1501 1502 1502 1506 1515 1521 1513 1504 1508 1511 1509 1513 1518 1520 1523 1525 1526 1528 1530 1532 1533 1534 1535 1536 1538 1539 1540 1541 1541 1542 1543 1542 1541 1542 1543 1543 1543 1543 1543 1542 1543 1544 1543 1543 1542 1542 1542 1543 1544 1544 1544 1543 1542 1543 1543 1542 1542 1542 1541 1541 1539 1538 1538 1536 1535 1534 1534 1534 1535 1536 1538 1539 1540
1509 1509 1508 1509 1507 1504 1504 1504 1503 1506 1505 1500 1500 1503 1504 1507 1513 1516 1515 1511 1509 1512 1513 1513 1517 1521 1524 1526 1527 1528 1530 1532 1533 1534 1535 1536 1538 1539 1540 1540 1541 1541 1542 1542 1542 1542 1542 1542 1542 1542 1542 1542 1543 1543 1542 1541 1541 1541 1541 1541 1542 1542 1543 1543 1542 1542 1541 1541 1542 1542 1541 1541 1540 1539 1538 1537 1536 1535 1534 1533 1533 1534 1535 1537 1538 1538
1504 1507 1508 1505 1503 1504 1504 1505 1507 1511 1507 1502 1503 1506 1507 1511 1515 1514 1512 1514 1515 1516 1517 1519 1521 1524 1527 1528 1528 1530 1532 1533 1535 1536 1537 1538 1539 1539 1540 1540 1541 1541 1542 1541 1542 1541 1540 1540 1540 1541 1541 1541 1541 1541 1540 1540 1540 1539 1539 1540 1540 1541 1541 1541 1541 1541 1540 1540 1540 1540 1541 1540 1540 1539 1538 1537 1536 1536 1535 1534 1534 1534 1534 1535 1535 1536
1500 1504 1506 1501 1498 1503 1508 1509 1509 1509 1505 1503 1507 1511 1511 1512 1514 1514 1515 1516 1518 1519 1521 1523 1524 1526 1529 1529 1530 1532 1533 1534 1536 1536 1537 1538 1539 1539 1540 1540 1540 1541 1540 1540 1540 1539 1539 1539 1539 1539 1539 1539 1539 1538 1538 1538 1538 1538 1538 1538 1538 1539 1539 1539 1539 1539 1539 1539 1539 1538 1539 1539 1539 1538 1538 1537 1537 1536 1535 1534 1534 1533 1533 1533 1533 1533
1499 1500 1503 1503 1500 1502 1505 1506 1506 1506 1505 1506 1508 1510 1512 1514 1515 1516 1517 1518 1519 1521 1521 1523 1526 1528 1529 1530 1532 1533 1533 1534 1535 1536 1537 1538 1538 1539 1540 1539 1539 1540 1539 1539 1539 1538 1538 1538 1538 1537 1538 1537 1537 1537 1536 1536 1536 1536 1537 1537 1537 1537 1537 1537 1537 1537 1537 1537 1537 1537 1537 1537 1537 1538 1537 1537 1536 1536 1535 1535 1534 1533 1533 1532 1532 1531
1498 1499 1502 1504 1502 1501 1502 1502 1504 1505 1506 1507 1509 1510 1513 1515 1516 1517 1518 1519 1520 1521 1522 1524 1526 1527 1529 1531 1532 1533 1534 1534 1535 1536 1537 1537 1537 1538 1539 1538 1539 1539 1538 1538 1538 1537 1537 1537 1536 1536 1536 1535 1535 1535 1534 1535 1535 1534 1534 1534 1534 1535 1535 1535 1535 1535 1535 1535 1535 1535 1535 1535 1535 1536 1535 1535 1535 1535 1535 1534 1533 1532 1532 1531 1530 1530
1497 1500 1502 1502 1503 1505 1504 1501 1501 1504 1506 1508 1509 1511 1513 1515 1517 1518 1519 1520 1521 1522 1523 1524 1526 1528 1530 1531 1531 1533 1533 1534 1534 1535 1536 1536 1537 1537 1537 1538 1538 1538 1537 1537 1537 1536 1536 1536 1535 1534 1534 1533 1533 1533 1532 1532 1532 1531 1531 1531 1532 1533 1533 1533 1533 1533 1533 1533 1533 1533 1533 1533 1533 1533 1533 1533 1533 1533 1533 1533 1532 1531 1530 1529 1528 1528
1498 1500 1500 1501 1502 1504 1503 1501 1502 1505 1507 1508 1509 1510 1511 1514 1516 1518 1519 1520 1521 1523 1524 1525 1527 1528 1529 1530 1531 1532 1533 1533 1534 1535 1535 1536 1537 1536 1536 1537 1537 1536 1536 1536 1536 1535 1535 1534 1534 1533 1532 1531 1531 1531 1531 1530 1529 1529 1529 1528 1529 1530 1529 1530 1530 1530 1531 1531 1531 1531 1531 1531 1531 1531 1531 1531 1531 1530 1530 1530 1530 1529 1528 1527 1526 1525
1501 1501 1499 1500 1502 1502 1501 1502 1503 1505 1506 1507 1509 1510 1511 1513 1515 1517 1519 1520 1521 1522 1524 1525 1526 1527 1528 1529 1529 1531 1532 1533 1534 1534 1535 1535 1535 1535 1536 1535 1535 1535 1535 1535 1534 1534 1533 1533 1532 1532 1531 1530 1529 1529 1529 1528 1528 1527 1527 1526 1526 1526 1527 1527 1528 1528 1528 1529 1528 1529 1529 1529 1529 1529 1529 1528 1528 1528 1528 1527 1526 1526 1525 1525 1524 1523
1501 1501 1500 1501 1504 1503 1503 1505 1506 1507 1507 1508 1510 1511 1512 1513 1514 1515 1516 1518 1519 1521 1522 1523 1525 1526 1527 1528 1528 1530 1531 1532 1533 1534 1535 1535 1535 1535 1535 1534 1534 1534 1533 1533 1533 1532 1532 1531 1531 1530 1530 1529 1528 1528 1527 1526 1526 1526 1525 1524 1524 1524 1524 1524 1524 1525 1526 1526 1526 1527 1527 1527 1527 1526 1526 1525 1525 1525 1524 1524 1523 1523 1522 1522 1522 1521
1502 1503 1503 1505 1506 1504 1504 1507 1509 1509 1510 1510 1511 1512 1513 1513 1513 1513 1514 1515 1517 1518 1519 1520 1521 1523 1525 1526 1528 1529 1530 1531 1532 1533 1534 1534 1534 1534 1533 1533 1533 1533 1532 1532 1531 1530 1530 1530 1529 1528 1528 1527 1527 1526 1526 1525 1524 1524 1523 1523 1522 1522 1522 1522 1522 1522 1523 1523 1524 1524 1524 1524 1524 1523 1524 1523 1523 1522 1522 1521 1520 1520 1519 1519 1518 1518